Time,TemperatureF,DewpointF,PressureIn,WindDirection,WindDirectionDegrees,WindSpeedMPH,WindSpeedGustMPH,Humidity,HourlyPrecipIn,Conditions,Clouds,dailyrainin,SoftwareType,DateUTC
2013-01-11 00:03:00,30.2,18.0,30.59,ESE,112,2.0,2.0,60,0.00,,,0.00,meteohub,2013-01-11 05:03:00,
2013-01-11 00:12:00,30.0,17.4,30.59,East,90,0.0,3.0,59,0.00,,,0.00,meteohub,2013-01-11 05:12:00,
2013-01-11 00:17:00,29.8,18.1,30.59,ESE,112,0.0,3.0,61,0.00,,,0.00,meteohub,2013-01-11 05:17:00,
2013-01-11 00:22:00,29.7,18.0,30.59,ESE,112,0.0,2.0,61,0.00,,,0.00,meteohub,2013-01-11 05:22:00,
2013-01-11 00:27:00,29.5,17.8,30.59,ESE,112,0.0,0.0,61,0.00,,,0.00,meteohub,2013-01-11 05:27:00,
2013-01-11 00:32:00,29.3,18.0,30.59,ESE,112,2.0,0.0,62,0.00,,,0.00,meteohub,2013-01-11 05:32:00,
2013-01-11 00:37:00,29.3,17.6,30.59,ESE,112,2.0,2.0,61,0.00,,,0.00,meteohub,2013-01-11 05:37:00,
2013-01-11 00:42:00,29.3,17.6,30.59,ESE,112,2.0,2.0,61,0.00,,,0.00,meteohub,2013-01-11 05:42:00,
2013-01-11 00:47:00,29.3,17.6,30.59,East,90,1.0,2.0,61,0.00,,,0.00,meteohub,2013-01-11 05:47:00,
2013-01-11 00:52:00,29.3,17.6,30.59,East,90,0.0,2.0,61,0.00,,,0.00,meteohub,2013-01-11 05:52:00,
2013-01-11 00:57:00,28.8,17.4,30.59,ESE,112,0.0,2.0,62,0.00,,,0.00,meteohub,2013-01-11 05:57:00,
2013-01-11 01:02:00,28.6,17.6,30.59,ESE,112,0.0,2.0,63,0.00,,,0.00,meteohub,2013-01-11 06:02:00,
2013-01-11 01:07:00,28.6,17.2,30.56,SE,135,0.0,2.0,62,0.00,,,0.00,meteohub,2013-01-11 06:07:00,
2013-01-11 01:12:00,28.4,17.4,30.56,ESE,112,0.0,2.0,63,0.00,,,0.00,meteohub,2013-01-11 06:12:00,
2013-01-11 01:17:00,28.4,17.4,30.56,ESE,112,0.0,2.0,63,0.00,,,0.00,meteohub,2013-01-11 06:17:00,
2013-01-11 01:22:00,28.2,17.2,30.56,ESE,112,0.0,2.0,63,0.00,,,0.00,meteohub,2013-01-11 06:22:00,
2013-01-11 01:27:00,28.2,17.2,30.56,East,90,0.0,2.0,63,0.00,,,0.00,meteohub,2013-01-11 06:27:00,
2013-01-11 01:32:00,28.0,17.1,30.56,East,90,0.0,2.0,63,0.00,,,0.00,meteohub,2013-01-11 06:32:00,
2013-01-11 01:37:00,27.9,17.2,30.56,ESE,112,0.0,2.0,64,0.00,,,0.00,meteohub,2013-01-11 06:37:00,
2013-01-11 01:42:00,27.9,17.6,30.56,ESE,112,0.0,2.0,65,0.00,,,0.00,meteohub,2013-01-11 06:42:00,
2013-01-11 01:47:00,27.7,17.4,30.56,ESE,112,2.0,2.0,65,0.00,,,0.00,meteohub,2013-01-11 06:47:00,
2013-01-11 01:52:00,27.7,17.1,30.59,ESE,112,0.0,2.0,64,0.00,,,0.00,meteohub,2013-01-11 06:52:00,
2013-01-11 01:57:00,27.9,17.6,30.59,ESE,112,0.0,2.0,65,0.00,,,0.00,meteohub,2013-01-11 06:57:00,
2013-01-11 02:02:00,27.5,17.2,30.59,ENE,68,2.0,2.0,65,0.00,,,0.00,meteohub,2013-01-11 07:02:00,
2013-01-11 02:07:00,27.7,17.4,30.56,ESE,112,0.0,2.0,65,0.00,,,0.00,meteohub,2013-01-11 07:07:00,
2013-01-11 02:12:00,27.7,17.4,30.56,East,90,0.0,2.0,65,0.00,,,0.00,meteohub,2013-01-11 07:12:00,
2013-01-11 02:17:00,27.5,17.2,30.56,East,90,0.0,2.0,65,0.00,,,0.00,meteohub,2013-01-11 07:17:00,
2013-01-11 02:22:00,27.5,17.6,30.56,East,90,0.0,2.0,66,0.00,,,0.00,meteohub,2013-01-11 07:22:00,
2013-01-11 02:27:00,27.5,17.6,30.56,East,90,0.0,2.0,66,0.00,,,0.00,meteohub,2013-01-11 07:27:00,
2013-01-11 02:32:00,27.3,17.1,30.56,ESE,112,0.0,2.0,65,0.00,,,0.00,meteohub,2013-01-11 07:32:00,
2013-01-11 02:37:00,27.0,17.1,30.56,South,180,0.0,2.0,66,0.00,,,0.00,meteohub,2013-01-11 07:37:00,
2013-01-11 02:42:00,26.8,17.2,30.56,South,180,0.0,2.0,67,0.00,,,0.00,meteohub,2013-01-11 07:42:00,
2013-01-11 02:47:00,26.8,17.2,30.56,South,180,0.0,2.0,67,0.00,,,0.00,meteohub,2013-01-11 07:47:00,
2013-01-11 02:52:00,26.8,17.2,30.56,ESE,112,1.0,2.0,67,0.00,,,0.00,meteohub,2013-01-11 07:52:00,
2013-01-11 02:57:00,26.8,17.2,30.56,East,90,0.0,2.0,67,0.00,,,0.00,meteohub,2013-01-11 07:57:00,
2013-01-11 03:02:00,26.8,17.6,30.56,ESE,112,0.0,2.0,68,0.00,,,0.00,meteohub,2013-01-11 08:02:00,
2013-01-11 03:07:00,26.8,17.2,30.56,ESE,112,0.0,2.0,67,0.00,,,0.00,meteohub,2013-01-11 08:07:00,
2013-01-11 03:12:00,26.6,17.8,30.56,ESE,112,0.0,1.0,69,0.00,,,0.00,meteohub,2013-01-11 08:12:00,
2013-01-11 03:17:00,26.6,17.4,30.56,ESE,112,0.0,0.0,68,0.00,,,0.00,meteohub,2013-01-11 08:17:00,
2013-01-11 03:22:00,26.4,17.6,30.53,ESE,112,0.0,0.0,69,0.00,,,0.00,meteohub,2013-01-11 08:22:00,
2013-01-11 03:27:00,26.4,17.6,30.53,SE,135,0.0,1.0,69,0.00,,,0.00,meteohub,2013-01-11 08:27:00,
2013-01-11 03:32:00,26.4,17.6,30.53,SE,135,0.0,2.0,69,0.00,,,0.00,meteohub,2013-01-11 08:32:00,
2013-01-11 03:37:00,26.1,17.6,30.53,SE,135,0.0,2.0,70,0.00,,,0.00,meteohub,2013-01-11 08:37:00,
2013-01-11 03:42:00,26.1,17.6,30.53,SE,135,0.0,2.0,70,0.00,,,0.00,meteohub,2013-01-11 08:42:00,
2013-01-11 03:47:00,26.1,17.2,30.53,SSW,202,0.0,0.0,69,0.00,,,0.00,meteohub,2013-01-11 08:47:00,
2013-01-11 03:52:00,26.1,17.6,30.53,South,180,0.0,2.0,70,0.00,,,0.00,meteohub,2013-01-11 08:52:00,
2013-01-11 03:57:00,25.9,17.8,30.53,South,180,0.0,2.0,71,0.00,,,0.00,meteohub,2013-01-11 08:57:00,
2013-01-11 04:02:00,25.9,17.8,30.53,SSE,158,0.0,2.0,71,0.00,,,0.00,meteohub,2013-01-11 09:02:00,
2013-01-11 04:07:00,26.1,18.0,30.53,SSE,158,0.0,0.0,71,0.00,,,0.00,meteohub,2013-01-11 09:07:00,
2013-01-11 04:12:00,25.9,17.8,30.53,South,180,0.0,0.0,71,0.00,,,0.00,meteohub,2013-01-11 09:12:00,
2013-01-11 04:17:00,25.7,17.6,30.53,South,180,0.0,0.0,71,0.00,,,0.00,meteohub,2013-01-11 09:17:00,
2013-01-11 04:22:00,25.7,18.0,30.53,South,180,0.0,0.0,72,0.00,,,0.00,meteohub,2013-01-11 09:22:00,
2013-01-11 04:27:00,25.7,18.0,30.53,ESE,112,0.0,0.0,72,0.00,,,0.00,meteohub,2013-01-11 09:27:00,
2013-01-11 04:32:00,25.7,18.0,30.53,SE,135,0.0,0.0,72,0.00,,,0.00,meteohub,2013-01-11 09:32:00,
2013-01-11 04:37:00,25.7,18.0,30.50,East,90,0.0,0.0,72,0.00,,,0.00,meteohub,2013-01-11 09:37:00,
2013-01-11 04:42:00,25.7,18.0,30.50,East,90,0.0,0.0,72,0.00,,,0.00,meteohub,2013-01-11 09:42:00,
2013-01-11 04:47:00,25.5,17.8,30.50,SSE,158,0.0,0.0,72,0.00,,,0.00,meteohub,2013-01-11 09:47:00,
2013-01-11 04:52:00,25.3,17.6,30.53,SSE,158,0.0,0.0,72,0.00,,,0.00,meteohub,2013-01-11 09:52:00,
2013-01-11 04:57:00,25.3,17.6,30.53,SSE,158,0.0,0.0,72,0.00,,,0.00,meteohub,2013-01-11 09:57:00,
2013-01-11 05:02:00,25.3,17.6,30.53,SE,135,0.0,0.0,72,0.00,,,0.00,meteohub,2013-01-11 10:02:00,
2013-01-11 05:07:00,25.5,18.1,30.50,ESE,112,0.0,0.0,73,0.00,,,0.00,meteohub,2013-01-11 10:07:00,
2013-01-11 05:12:00,25.7,18.3,30.50,ESE,112,0.0,0.0,73,0.00,,,0.00,meteohub,2013-01-11 10:12:00,
2013-01-11 05:17:00,25.7,18.0,30.50,SSE,158,0.0,0.0,72,0.00,,,0.00,meteohub,2013-01-11 10:17:00,
2013-01-11 05:22:00,25.5,18.1,30.53,SSE,158,0.0,0.0,73,0.00,,,0.00,meteohub,2013-01-11 10:22:00,
2013-01-11 05:27:00,25.5,18.1,30.53,East,90,0.0,0.0,73,0.00,,,0.00,meteohub,2013-01-11 10:27:00,
2013-01-11 05:32:00,25.3,18.0,30.53,ESE,112,0.0,0.0,73,0.00,,,0.00,meteohub,2013-01-11 10:32:00,
2013-01-11 05:37:00,25.3,18.3,30.53,SSE,158,0.0,0.0,74,0.00,,,0.00,meteohub,2013-01-11 10:37:00,
2013-01-11 05:42:00,25.3,18.0,30.53,South,180,0.0,0.0,73,0.00,,,0.00,meteohub,2013-01-11 10:42:00,
2013-01-11 05:47:00,25.5,18.3,30.53,South,180,0.0,0.0,74,0.00,,,0.00,meteohub,2013-01-11 10:47:00,
2013-01-11 05:52:00,25.5,18.3,30.53,SE,135,0.0,0.0,74,0.00,,,0.00,meteohub,2013-01-11 10:52:00,
2013-01-11 05:57:00,25.5,18.3,30.53,SE,135,0.0,0.0,74,0.00,,,0.00,meteohub,2013-01-11 10:57:00,
2013-01-11 06:02:00,25.5,18.3,30.53,SE,135,0.0,0.0,74,0.00,,,0.00,meteohub,2013-01-11 11:02:00,
2013-01-11 06:07:00,25.5,18.3,30.56,South,180,0.0,0.0,74,0.00,,,0.00,meteohub,2013-01-11 11:07:00,
2013-01-11 06:12:00,25.5,18.7,30.56,South,180,0.0,0.0,75,0.00,,,0.00,meteohub,2013-01-11 11:12:00,
2013-01-11 06:17:00,25.7,18.9,30.56,South,180,0.0,0.0,75,0.00,,,0.00,meteohub,2013-01-11 11:17:00,
2013-01-11 06:22:00,25.7,18.9,30.53,South,180,0.0,0.0,75,0.00,,,0.00,meteohub,2013-01-11 11:22:00,
2013-01-11 06:27:00,25.7,18.9,30.53,South,180,0.0,0.0,75,0.00,,,0.00,meteohub,2013-01-11 11:27:00,
2013-01-11 06:32:00,25.7,18.9,30.53,SSE,158,0.0,0.0,75,0.00,,,0.00,meteohub,2013-01-11 11:32:00,
2013-01-11 06:37:00,25.7,18.9,30.53,SE,135,0.0,0.0,75,0.00,,,0.00,meteohub,2013-01-11 11:37:00,
2013-01-11 06:42:00,25.7,18.9,30.53,SE,135,0.0,0.0,75,0.00,,,0.00,meteohub,2013-01-11 11:42:00,
2013-01-11 06:47:00,25.7,18.9,30.53,South,180,0.0,0.0,75,0.00,,,0.00,meteohub,2013-01-11 11:47:00,
2013-01-11 06:52:00,25.7,19.2,30.56,South,180,0.0,2.0,76,0.00,,,0.00,meteohub,2013-01-11 11:52:00,
2013-01-11 06:57:00,25.9,19.4,30.56,South,180,0.0,2.0,76,0.00,,,0.00,meteohub,2013-01-11 11:57:00,
2013-01-11 07:02:00,26.1,19.6,30.56,SSW,202,0.0,2.0,76,0.00,,,0.00,meteohub,2013-01-11 12:02:00,
2013-01-11 07:07:00,26.1,19.9,30.56,South,180,0.0,0.0,77,0.00,,,0.00,meteohub,2013-01-11 12:07:00,
2013-01-11 07:12:00,26.2,20.1,30.56,South,180,0.0,0.0,77,0.00,,,0.00,meteohub,2013-01-11 12:12:00,
2013-01-11 07:17:00,26.2,20.1,30.56,South,180,0.0,0.0,77,0.00,,,0.00,meteohub,2013-01-11 12:17:00,
2013-01-11 07:22:00,26.2,19.8,30.56,South,180,0.0,0.0,76,0.00,,,0.00,meteohub,2013-01-11 12:22:00,
2013-01-11 07:27:00,26.2,20.1,30.56,South,180,0.0,0.0,77,0.00,,,0.00,meteohub,2013-01-11 12:27:00,
2013-01-11 07:32:00,26.4,19.9,30.56,SSW,202,0.0,0.0,76,0.00,,,0.00,meteohub,2013-01-11 12:32:00,
2013-01-11 07:37:00,26.4,20.1,30.56,South,180,0.0,0.0,77,0.00,,,0.00,meteohub,2013-01-11 12:37:00,
2013-01-11 07:42:00,26.4,20.1,30.56,South,180,0.0,0.0,77,0.00,,,0.00,meteohub,2013-01-11 12:42:00,
2013-01-11 07:47:00,26.4,19.9,30.56,South,180,0.0,0.0,76,0.00,,,0.00,meteohub,2013-01-11 12:47:00,
2013-01-11 07:52:00,26.4,19.9,30.56,South,180,0.0,0.0,76,0.00,,,0.00,meteohub,2013-01-11 12:52:00,
2013-01-11 07:57:00,26.6,20.1,30.56,South,180,0.0,0.0,76,0.00,,,0.00,meteohub,2013-01-11 12:57:00,
2013-01-11 08:02:00,26.8,20.3,30.56,South,180,0.0,0.0,76,0.00,,,0.00,meteohub,2013-01-11 13:02:00,
2013-01-11 08:07:00,27.0,20.7,30.56,South,180,0.0,0.0,77,0.00,,,0.00,meteohub,2013-01-11 13:07:00,
2013-01-11 08:12:00,27.1,20.8,30.56,South,180,0.0,0.0,77,0.00,,,0.00,meteohub,2013-01-11 13:12:00,
2013-01-11 08:17:00,27.3,20.8,30.56,South,180,0.0,0.0,76,0.00,,,0.00,meteohub,2013-01-11 13:17:00,
2013-01-11 08:22:00,27.5,21.0,30.56,South,180,0.0,0.0,76,0.00,,,0.00,meteohub,2013-01-11 13:22:00,
2013-01-11 08:27:00,27.9,21.6,30.56,SE,135,0.0,0.0,77,0.00,,,0.00,meteohub,2013-01-11 13:27:00,
2013-01-11 08:32:00,28.0,21.6,30.56,East,90,0.0,0.0,76,0.00,,,0.00,meteohub,2013-01-11 13:32:00,
2013-01-11 08:37:00,28.4,21.7,30.53,SSW,202,0.0,0.0,76,0.00,,,0.00,meteohub,2013-01-11 13:37:00,
2013-01-11 08:42:00,28.6,21.7,30.53,SSW,202,0.0,2.0,75,0.00,,,0.00,meteohub,2013-01-11 13:42:00,
2013-01-11 08:47:00,28.8,22.1,30.53,SSW,202,0.0,3.0,76,0.00,,,0.00,meteohub,2013-01-11 13:47:00,
2013-01-11 08:52:00,29.1,22.5,30.56,SW,225,0.0,3.0,76,0.00,,,0.00,meteohub,2013-01-11 13:52:00,
2013-01-11 08:57:00,29.5,22.8,30.56,WSW,248,2.0,2.0,76,0.00,,,0.00,meteohub,2013-01-11 13:57:00,
2013-01-11 09:02:00,30.0,23.4,30.56,SW,225,2.0,2.0,76,0.00,,,0.00,meteohub,2013-01-11 14:02:00,
2013-01-11 09:07:00,30.4,23.4,30.56,SW,225,0.0,2.0,75,0.00,,,0.00,meteohub,2013-01-11 14:07:00,
2013-01-11 09:12:00,30.6,23.4,30.56,South,180,0.0,2.0,74,0.00,,,0.00,meteohub,2013-01-11 14:12:00,
2013-01-11 09:17:00,31.1,23.7,30.56,South,180,0.0,2.0,74,0.00,,,0.00,meteohub,2013-01-11 14:17:00,
2013-01-11 09:22:00,31.3,23.9,30.56,SSW,202,0.0,1.0,74,0.00,,,0.00,meteohub,2013-01-11 14:22:00,
2013-01-11 09:27:00,31.5,23.9,30.56,SSW,202,0.0,2.0,73,0.00,,,0.00,meteohub,2013-01-11 14:27:00,
2013-01-11 09:32:00,32.0,24.4,30.56,SSW,202,0.0,2.0,73,0.00,,,0.00,meteohub,2013-01-11 14:32:00,
2013-01-11 09:37:00,32.4,24.4,30.56,SSW,202,0.0,2.0,72,0.00,,,0.00,meteohub,2013-01-11 14:37:00,
2013-01-11 09:42:00,32.5,24.6,30.56,SSW,202,0.0,0.0,72,0.00,,,0.00,meteohub,2013-01-11 14:42:00,
2013-01-11 09:47:00,32.7,24.8,30.56,SSW,202,0.0,0.0,72,0.00,,,0.00,meteohub,2013-01-11 14:47:00,
2013-01-11 09:52:00,33.1,24.8,30.56,SSW,202,0.0,0.0,71,0.00,,,0.00,meteohub,2013-01-11 14:52:00,
2013-01-11 09:57:00,33.3,25.0,30.56,SW,225,2.0,0.0,71,0.00,,,0.00,meteohub,2013-01-11 14:57:00,
2013-01-11 10:02:00,33.4,25.2,30.56,South,180,0.0,2.0,71,0.00,,,0.00,meteohub,2013-01-11 15:02:00,
2013-01-11 10:07:00,33.8,24.8,30.53,South,180,2.0,2.0,69,0.00,,,0.00,meteohub,2013-01-11 15:07:00,
2013-01-11 10:12:00,34.0,24.6,30.53,SE,135,0.0,2.0,68,0.00,,,0.00,meteohub,2013-01-11 15:12:00,
2013-01-11 10:17:00,34.2,24.8,30.53,East,90,0.0,2.0,68,0.00,,,0.00,meteohub,2013-01-11 15:17:00,
2013-01-11 10:22:00,34.3,25.0,30.50,South,180,0.0,2.0,68,0.00,,,0.00,meteohub,2013-01-11 15:22:00,
2013-01-11 10:27:00,34.5,24.8,30.50,SSW,202,0.0,1.0,67,0.00,,,0.00,meteohub,2013-01-11 15:27:00,
2013-01-11 10:32:00,34.9,25.0,30.50,WSW,248,2.0,2.0,67,0.00,,,0.00,meteohub,2013-01-11 15:32:00,
2013-01-11 10:37:00,35.1,24.8,30.53,SSW,202,0.0,2.0,66,0.00,,,0.00,meteohub,2013-01-11 15:37:00,
2013-01-11 10:42:00,35.1,24.4,30.53,South,180,0.0,2.0,65,0.00,,,0.00,meteohub,2013-01-11 15:42:00,
2013-01-11 10:47:00,35.4,24.8,30.53,SSW,202,0.0,2.0,65,0.00,,,0.00,meteohub,2013-01-11 15:47:00,
2013-01-11 10:52:00,35.6,24.3,30.53,East,90,0.0,2.0,63,0.00,,,0.00,meteohub,2013-01-11 15:52:00,
2013-01-11 10:57:00,35.8,24.1,30.53,NNW,338,2.0,3.0,62,0.00,,,0.00,meteohub,2013-01-11 15:57:00,
2013-01-11 11:02:00,36.1,23.7,30.53,SSE,158,0.0,4.0,60,0.00,,,0.00,meteohub,2013-01-11 16:02:00,
2013-01-11 11:07:00,36.3,23.4,30.50,SSE,158,3.0,4.0,59,0.00,,,0.00,meteohub,2013-01-11 16:07:00,
2013-01-11 11:12:00,36.5,23.5,30.50,East,90,1.0,4.0,59,0.00,,,0.00,meteohub,2013-01-11 16:12:00,
2013-01-11 11:17:00,36.7,24.1,30.50,SE,135,0.0,4.0,60,0.00,,,0.00,meteohub,2013-01-11 16:17:00,
2013-01-11 11:22:00,36.9,23.9,30.47,South,180,0.0,4.0,59,0.00,,,0.00,meteohub,2013-01-11 16:22:00,
2013-01-11 11:27:00,37.0,24.1,30.47,South,180,2.0,3.0,59,0.00,,,0.00,meteohub,2013-01-11 16:27:00,
2013-01-11 11:32:00,37.2,24.3,30.47,South,180,1.0,3.0,59,0.00,,,0.00,meteohub,2013-01-11 16:32:00,
2013-01-11 11:37:00,37.2,24.3,30.47,South,180,0.0,3.0,59,0.00,,,0.00,meteohub,2013-01-11 16:37:00,
2013-01-11 11:42:00,37.2,24.3,30.47,South,180,2.0,3.0,59,0.00,,,0.00,meteohub,2013-01-11 16:42:00,
2013-01-11 11:47:00,37.2,23.9,30.47,WSW,248,2.0,3.0,58,0.00,,,0.00,meteohub,2013-01-11 16:47:00,
2013-01-11 11:52:00,37.4,24.1,30.47,SSE,158,0.0,4.0,58,0.00,,,0.00,meteohub,2013-01-11 16:52:00,
2013-01-11 11:57:00,37.4,24.1,30.47,South,180,2.0,4.0,58,0.00,,,0.00,meteohub,2013-01-11 16:57:00,
2013-01-11 12:02:00,37.2,23.9,30.47,South,180,0.0,4.0,58,0.00,,,0.00,meteohub,2013-01-11 17:02:00,
2013-01-11 12:07:00,37.2,23.9,30.47,WSW,248,3.0,4.0,58,0.00,,,0.00,meteohub,2013-01-11 17:07:00,
2013-01-11 12:12:00,36.9,23.5,30.47,SW,225,1.0,4.0,58,0.00,,,0.00,meteohub,2013-01-11 17:12:00,
2013-01-11 12:17:00,36.7,23.7,30.47,WSW,248,0.0,4.0,59,0.00,,,0.00,meteohub,2013-01-11 17:17:00,
2013-01-11 12:22:00,36.7,23.7,30.47,SSW,202,1.0,4.0,59,0.00,,,0.00,meteohub,2013-01-11 17:22:00,
2013-01-11 12:27:00,36.3,23.4,30.47,East,90,0.0,3.0,59,0.00,,,0.00,meteohub,2013-01-11 17:27:00,
2013-01-11 12:32:00,36.3,23.4,30.47,SSE,158,0.0,2.0,59,0.00,,,0.00,meteohub,2013-01-11 17:32:00,
2013-01-11 12:37:00,36.3,23.4,30.47,South,180,0.0,2.0,59,0.00,,,0.00,meteohub,2013-01-11 17:37:00,
2013-01-11 12:42:00,36.3,23.4,30.47,SSW,202,0.0,2.0,59,0.00,,,0.00,meteohub,2013-01-11 17:42:00,
2013-01-11 12:47:00,36.3,23.4,30.47,South,180,0.0,1.0,59,0.00,,,0.00,meteohub,2013-01-11 17:47:00,
2013-01-11 12:52:00,36.3,23.4,30.47,SSE,158,0.0,1.0,59,0.00,,,0.00,meteohub,2013-01-11 17:52:00,
2013-01-11 12:57:00,36.5,23.5,30.47,ENE,68,2.0,0.0,59,0.00,,,0.00,meteohub,2013-01-11 17:57:00,
2013-01-11 13:02:00,36.3,23.4,30.47,South,180,0.0,2.0,59,0.00,,,0.00,meteohub,2013-01-11 18:02:00,
2013-01-11 13:07:00,36.3,23.4,30.44,East,90,0.0,2.0,59,0.00,,,0.00,meteohub,2013-01-11 18:07:00,
2013-01-11 13:12:00,36.3,23.4,30.44,SW,225,0.0,2.0,59,0.00,,,0.00,meteohub,2013-01-11 18:12:00,
2013-01-11 13:17:00,36.3,23.4,30.44,SSW,202,0.0,0.0,59,0.00,,,0.00,meteohub,2013-01-11 18:17:00,
2013-01-11 13:22:00,36.3,23.4,30.44,SSW,202,0.0,0.0,59,0.00,,,0.00,meteohub,2013-01-11 18:22:00,
2013-01-11 13:27:00,36.3,23.7,30.44,SSW,202,0.0,0.0,60,0.00,,,0.00,meteohub,2013-01-11 18:27:00,
2013-01-11 13:32:00,36.3,23.4,30.44,SSW,202,0.0,0.0,59,0.00,,,0.00,meteohub,2013-01-11 18:32:00,
2013-01-11 13:37:00,36.3,23.7,30.44,SSW,202,0.0,0.0,60,0.00,,,0.00,meteohub,2013-01-11 18:37:00,
2013-01-11 13:42:00,36.3,23.7,30.44,SSW,202,0.0,0.0,60,0.00,,,0.00,meteohub,2013-01-11 18:42:00,
2013-01-11 13:47:00,36.3,23.7,30.44,SSW,202,0.0,2.0,60,0.00,,,0.00,meteohub,2013-01-11 18:47:00,
2013-01-11 13:52:00,36.3,23.4,30.41,SSW,202,0.0,2.0,59,0.00,,,0.00,meteohub,2013-01-11 18:52:00,
2013-01-11 13:57:00,36.3,23.4,30.41,SSW,202,0.0,2.0,59,0.00,,,0.00,meteohub,2013-01-11 18:57:00,
2013-01-11 14:02:00,36.1,23.2,30.41,SSW,202,0.0,0.0,59,0.00,,,0.00,meteohub,2013-01-11 19:02:00,
2013-01-11 14:07:00,36.1,23.2,30.44,SSW,202,0.0,0.0,59,0.00,,,0.00,meteohub,2013-01-11 19:07:00,
2013-01-11 14:12:00,36.1,23.2,30.44,ESE,112,0.0,0.0,59,0.00,,,0.00,meteohub,2013-01-11 19:12:00,
2013-01-11 14:17:00,36.1,23.7,30.44,WNW,292,0.0,2.0,60,0.00,,,0.00,meteohub,2013-01-11 19:17:00,
2013-01-11 14:22:00,36.1,23.7,30.41,SSW,202,0.0,2.0,60,0.00,,,0.00,meteohub,2013-01-11 19:22:00,
2013-01-11 14:27:00,36.1,23.7,30.41,SSW,202,0.0,2.0,60,0.00,,,0.00,meteohub,2013-01-11 19:27:00,
2013-01-11 14:32:00,36.1,23.7,30.41,SSW,202,0.0,0.0,60,0.00,,,0.00,meteohub,2013-01-11 19:32:00,
2013-01-11 14:37:00,36.1,23.7,30.41,ENE,68,0.0,0.0,60,0.00,,,0.00,meteohub,2013-01-11 19:37:00,
2013-01-11 14:42:00,36.3,23.7,30.41,South,180,0.0,1.0,60,0.00,,,0.00,meteohub,2013-01-11 19:42:00,
2013-01-11 14:47:00,36.3,23.7,30.41,South,180,0.0,1.0,60,0.00,,,0.00,meteohub,2013-01-11 19:47:00,
2013-01-11 14:52:00,36.3,23.7,30.41,ENE,68,0.0,1.0,60,0.00,,,0.00,meteohub,2013-01-11 19:52:00,
2013-01-11 14:57:00,36.3,23.7,30.41,NE,45,2.0,2.0,60,0.00,,,0.00,meteohub,2013-01-11 19:57:00,
2013-01-11 15:02:00,36.3,24.3,30.41,WSW,248,1.0,3.0,61,0.00,,,0.00,meteohub,2013-01-11 20:02:00,
2013-01-11 15:07:00,36.3,24.6,30.44,South,180,1.0,4.0,62,0.00,,,0.00,meteohub,2013-01-11 20:07:00,
2013-01-11 15:12:00,36.5,24.8,30.44,South,180,0.0,4.0,62,0.00,,,0.00,meteohub,2013-01-11 20:12:00,
2013-01-11 15:17:00,36.7,25.0,30.44,South,180,0.0,2.0,62,0.00,,,0.00,meteohub,2013-01-11 20:17:00,
2013-01-11 15:22:00,36.7,25.0,30.41,South,180,0.0,2.0,62,0.00,,,0.00,meteohub,2013-01-11 20:22:00,
2013-01-11 15:27:00,36.7,25.0,30.41,SE,135,0.0,2.0,62,0.00,,,0.00,meteohub,2013-01-11 20:27:00,
2013-01-11 15:32:00,36.5,25.2,30.41,East,90,0.0,2.0,63,0.00,,,0.00,meteohub,2013-01-11 20:32:00,
2013-01-11 15:37:00,36.5,25.2,30.41,SSE,158,0.0,2.0,63,0.00,,,0.00,meteohub,2013-01-11 20:37:00,
2013-01-11 15:42:00,36.5,25.2,30.41,South,180,0.0,2.0,63,0.00,,,0.00,meteohub,2013-01-11 20:42:00,
2013-01-11 15:47:00,36.5,25.2,30.41,South,180,0.0,2.0,63,0.00,,,0.00,meteohub,2013-01-11 20:47:00,
2013-01-11 15:52:00,36.5,25.2,30.41,South,180,0.0,3.0,63,0.00,,,0.00,meteohub,2013-01-11 20:52:00,
2013-01-11 15:57:00,36.3,25.0,30.41,SSE,158,1.0,3.0,63,0.00,,,0.00,meteohub,2013-01-11 20:57:00,
2013-01-11 16:02:00,36.3,25.0,30.41,SSE,158,0.0,3.0,63,0.00,,,0.00,meteohub,2013-01-11 21:02:00,
2013-01-11 16:07:00,36.3,25.3,30.38,SSE,158,0.0,2.0,64,0.00,,,0.00,meteohub,2013-01-11 21:07:00,
2013-01-11 16:12:00,36.1,25.2,30.38,SSE,158,1.0,2.0,64,0.00,,,0.00,meteohub,2013-01-11 21:12:00,
2013-01-11 16:17:00,36.1,25.2,30.38,ESE,112,0.0,2.0,64,0.00,,,0.00,meteohub,2013-01-11 21:17:00,
2013-01-11 16:22:00,36.1,25.2,30.38,ESE,112,0.0,2.0,64,0.00,,,0.00,meteohub,2013-01-11 21:22:00,
2013-01-11 16:27:00,36.0,25.0,30.38,SE,135,0.0,2.0,64,0.00,,,0.00,meteohub,2013-01-11 21:27:00,
2013-01-11 16:32:00,36.0,25.0,30.38,SE,135,0.0,2.0,64,0.00,,,0.00,meteohub,2013-01-11 21:32:00,
2013-01-11 16:37:00,36.0,25.0,30.38,South,180,0.0,2.0,64,0.00,,,0.00,meteohub,2013-01-11 21:37:00,
2013-01-11 16:42:00,35.8,25.2,30.38,SE,135,0.0,2.0,65,0.00,,,0.00,meteohub,2013-01-11 21:42:00,
2013-01-11 16:47:00,35.8,25.2,30.38,SSE,158,2.0,2.0,65,0.00,,,0.00,meteohub,2013-01-11 21:47:00,
2013-01-11 16:52:00,35.8,25.2,30.35,SE,135,0.0,2.0,65,0.00,,,0.00,meteohub,2013-01-11 21:52:00,
2013-01-11 16:57:00,35.8,25.2,30.35,SE,135,0.0,2.0,65,0.00,,,0.00,meteohub,2013-01-11 21:57:00,
2013-01-11 17:02:00,35.8,25.2,30.35,ESE,112,0.0,2.0,65,0.00,,,0.00,meteohub,2013-01-11 22:02:00,
2013-01-11 17:07:00,35.8,25.5,30.35,SE,135,0.0,2.0,66,0.00,,,0.00,meteohub,2013-01-11 22:07:00,
2013-01-11 17:12:00,35.6,25.3,30.35,SSW,202,0.0,1.0,66,0.00,,,0.00,meteohub,2013-01-11 22:12:00,
2013-01-11 17:17:00,35.4,25.5,30.35,SSE,158,0.0,0.0,67,0.00,,,0.00,meteohub,2013-01-11 22:17:00,
2013-01-11 17:22:00,35.4,25.5,30.35,South,180,1.0,2.0,67,0.00,,,0.00,meteohub,2013-01-11 22:22:00,
2013-01-11 17:27:00,35.4,26.2,30.35,South,180,0.0,2.0,69,0.00,,,0.00,meteohub,2013-01-11 22:27:00,
2013-01-11 17:32:00,35.2,26.8,30.35,SSW,202,0.0,2.0,71,0.00,,,0.00,meteohub,2013-01-11 22:32:00,
2013-01-11 17:37:00,35.1,27.0,30.35,South,180,0.0,2.0,72,0.00,,,0.00,meteohub,2013-01-11 22:37:00,
2013-01-11 17:42:00,34.9,27.1,30.35,SSE,158,0.0,1.0,73,0.00,,,0.00,meteohub,2013-01-11 22:42:00,
2013-01-11 17:47:00,34.7,27.3,30.35,SSE,158,0.0,0.0,74,0.00,,,0.00,meteohub,2013-01-11 22:47:00,
2013-01-11 17:52:00,34.5,27.5,30.35,SSE,158,0.0,0.0,75,0.00,,,0.00,meteohub,2013-01-11 22:52:00,
2013-01-11 17:57:00,34.3,27.5,30.35,SSE,158,0.0,0.0,76,0.00,,,0.00,meteohub,2013-01-11 22:57:00,
2013-01-11 18:02:00,34.3,27.5,30.35,SSE,158,0.0,0.0,76,0.00,,,0.00,meteohub,2013-01-11 23:02:00,
2013-01-11 18:07:00,34.2,27.7,30.35,SSE,158,0.0,0.0,77,0.00,,,0.00,meteohub,2013-01-11 23:07:00,
2013-01-11 18:12:00,34.2,27.7,30.35,SSE,158,0.0,0.0,77,0.00,,,0.00,meteohub,2013-01-11 23:12:00,
2013-01-11 18:17:00,34.2,27.7,30.35,SE,135,0.0,0.0,77,0.00,,,0.00,meteohub,2013-01-11 23:17:00,
2013-01-11 18:22:00,34.2,28.0,30.35,East,90,0.0,0.0,78,0.00,,,0.00,meteohub,2013-01-11 23:22:00,
2013-01-11 18:27:00,34.2,28.0,30.35,SSE,158,0.0,0.0,78,0.00,,,0.00,meteohub,2013-01-11 23:27:00,
2013-01-11 18:32:00,34.2,28.4,30.35,ENE,68,2.0,0.0,79,0.00,,,0.00,meteohub,2013-01-11 23:32:00,
2013-01-11 18:37:00,34.0,28.4,30.32,East,90,0.0,2.0,80,0.04,,,0.04,meteohub,2013-01-11 23:37:00,
2013-01-11 18:42:00,34.0,28.4,30.32,SSW,202,2.0,2.0,80,0.04,,,0.04,meteohub,2013-01-11 23:42:00,
2013-01-11 18:47:00,34.0,28.4,30.32,ESE,112,2.0,2.0,80,0.04,,,0.04,meteohub,2013-01-11 23:47:00,
2013-01-11 18:52:00,34.0,28.8,30.32,NW,315,1.0,2.0,81,0.04,,,0.04,meteohub,2013-01-11 23:52:00,
2013-01-11 18:57:00,34.0,28.8,30.32,West,270,2.0,4.0,81,0.04,,,0.04,meteohub,2013-01-11 23:57:00,
2013-01-11 19:02:00,34.0,29.1,30.32,South,180,0.0,4.0,82,0.04,,,0.04,meteohub,2013-01-12 00:02:00,
2013-01-11 19:07:00,34.0,29.1,30.32,SW,225,0.0,3.0,82,0.04,,,0.00,meteohub,2013-01-12 00:07:00,
2013-01-11 19:12:00,34.0,29.3,30.32,SW,225,1.0,3.0,83,0.04,,,0.00,meteohub,2013-01-12 00:12:00,
2013-01-11 19:17:00,34.0,29.3,30.32,SSW,202,0.0,2.0,83,0.04,,,0.00,meteohub,2013-01-12 00:17:00,
2013-01-11 19:22:00,34.0,29.7,30.32,ESE,112,0.0,2.0,84,0.04,,,0.00,meteohub,2013-01-12 00:22:00,
2013-01-11 19:27:00,33.8,29.8,30.32,ESE,112,0.0,2.0,85,0.04,,,0.00,meteohub,2013-01-12 00:27:00,
2013-01-11 19:32:00,33.8,29.8,30.32,ESE,112,0.0,0.0,85,0.04,,,0.00,meteohub,2013-01-12 00:32:00,
2013-01-11 19:37:00,33.8,29.8,30.32,South,180,0.0,0.0,85,0.00,,,0.00,meteohub,2013-01-12 00:37:00,
2013-01-11 19:42:00,33.8,30.0,30.32,SE,135,0.0,0.0,86,0.00,,,0.00,meteohub,2013-01-12 00:42:00,
2013-01-11 19:47:00,33.8,30.0,30.32,SSE,158,0.0,0.0,86,0.00,,,0.00,meteohub,2013-01-12 00:47:00,
2013-01-11 19:52:00,33.8,30.0,30.32,SSE,158,0.0,0.0,86,0.00,,,0.00,meteohub,2013-01-12 00:52:00,
2013-01-11 19:57:00,33.8,30.0,30.32,SSW,202,0.0,0.0,86,0.00,,,0.00,meteohub,2013-01-12 00:57:00,
2013-01-11 20:02:00,33.8,30.4,30.32,WSW,248,0.0,0.0,87,0.00,,,0.00,meteohub,2013-01-12 01:02:00,
2013-01-11 20:07:00,33.8,30.4,30.32,West,270,0.0,0.0,87,0.00,,,0.00,meteohub,2013-01-12 01:07:00,
2013-01-11 20:12:00,33.8,30.4,30.32,WSW,248,0.0,0.0,87,0.00,,,0.00,meteohub,2013-01-12 01:12:00,
2013-01-11 20:17:00,33.8,30.6,30.32,WSW,248,0.0,0.0,88,0.00,,,0.00,meteohub,2013-01-12 01:17:00,
2013-01-11 20:22:00,33.8,30.6,30.29,WSW,248,0.0,0.0,88,0.00,,,0.00,meteohub,2013-01-12 01:22:00,
2013-01-11 20:27:00,33.8,30.6,30.29,NE,45,0.0,0.0,88,0.00,,,0.00,meteohub,2013-01-12 01:27:00,
2013-01-11 20:32:00,33.8,30.6,30.29,East,90,0.0,0.0,88,0.00,,,0.00,meteohub,2013-01-12 01:32:00,
2013-01-11 20:37:00,33.8,30.6,30.29,SSE,158,0.0,0.0,88,0.00,,,0.00,meteohub,2013-01-12 01:37:00,
2013-01-11 20:42:00,33.8,30.6,30.29,WSW,248,2.0,0.0,88,0.00,,,0.00,meteohub,2013-01-12 01:42:00,
2013-01-11 20:47:00,33.8,30.9,30.29,East,90,0.0,2.0,89,0.00,,,0.00,meteohub,2013-01-12 01:47:00,
2013-01-11 20:52:00,33.8,30.9,30.29,East,90,0.0,2.0,89,0.00,,,0.00,meteohub,2013-01-12 01:52:00,
2013-01-11 20:57:00,33.8,30.9,30.29,SE,135,0.0,2.0,89,0.00,,,0.00,meteohub,2013-01-12 01:57:00,
2013-01-11 21:02:00,33.8,30.9,30.29,SE,135,0.0,0.0,89,0.00,,,0.00,meteohub,2013-01-12 02:02:00,
2013-01-11 21:07:00,33.8,31.1,30.26,ESE,112,0.0,0.0,90,0.00,,,0.00,meteohub,2013-01-12 02:07:00,
2013-01-11 21:12:00,33.8,31.1,30.26,East,90,0.0,0.0,90,0.04,,,0.04,meteohub,2013-01-12 02:12:00,
2013-01-11 21:17:00,33.8,31.1,30.26,South,180,0.0,0.0,90,0.04,,,0.04,meteohub,2013-01-12 02:17:00,
2013-01-11 21:22:00,33.8,30.9,30.29,SSW,202,0.0,0.0,89,0.04,,,0.04,meteohub,2013-01-12 02:22:00,
2013-01-11 21:27:00,34.0,31.3,30.29,East,90,0.0,0.0,90,0.04,,,0.04,meteohub,2013-01-12 02:27:00,
2013-01-11 21:32:00,34.0,31.3,30.29,WSW,248,0.0,0.0,90,0.04,,,0.04,meteohub,2013-01-12 02:32:00,
2013-01-11 21:37:00,34.2,31.5,30.29,SSW,202,0.0,0.0,90,0.04,,,0.04,meteohub,2013-01-12 02:37:00,
2013-01-11 21:42:00,34.2,31.5,30.29,SE,135,0.0,0.0,90,0.04,,,0.04,meteohub,2013-01-12 02:42:00,
2013-01-11 21:47:00,34.3,32.0,30.29,West,270,3.0,0.0,91,0.04,,,0.04,meteohub,2013-01-12 02:47:00,
2013-01-11 21:52:00,34.3,32.0,30.26,SSW,202,1.0,3.0,91,0.04,,,0.04,meteohub,2013-01-12 02:52:00,
2013-01-11 21:57:00,34.3,32.0,30.26,SSE,158,2.0,3.0,91,0.04,,,0.04,meteohub,2013-01-12 02:57:00,
2013-01-11 22:02:00,34.5,32.2,30.26,SE,135,0.0,3.0,91,0.04,,,0.04,meteohub,2013-01-12 03:02:00,
2013-01-11 22:07:00,34.5,32.2,30.29,North,0,1.0,4.0,91,0.00,,,0.04,meteohub,2013-01-12 03:07:00,
2013-01-11 22:12:00,34.5,32.2,30.29,SSE,158,2.0,4.0,91,0.00,,,0.04,meteohub,2013-01-12 03:12:00,
2013-01-11 22:17:00,34.7,32.5,30.29,NE,45,0.0,3.0,92,0.00,,,0.04,meteohub,2013-01-12 03:17:00,
2013-01-11 22:22:00,34.7,32.4,30.29,SE,135,0.0,3.0,91,0.00,,,0.04,meteohub,2013-01-12 03:22:00,
2013-01-11 22:27:00,34.7,32.5,30.29,SW,225,2.0,3.0,92,0.00,,,0.04,meteohub,2013-01-12 03:27:00,
2013-01-11 22:32:00,34.7,32.5,30.29,SE,135,0.0,3.0,92,0.00,,,0.04,meteohub,2013-01-12 03:32:00,
2013-01-11 22:37:00,34.7,32.9,30.29,NNE,22,0.0,3.0,93,0.00,,,0.04,meteohub,2013-01-12 03:37:00,
2013-01-11 22:42:00,34.7,32.9,30.29,NNE,22,0.0,3.0,93,0.00,,,0.04,meteohub,2013-01-12 03:42:00,
2013-01-11 22:47:00,34.9,33.1,30.29,North,0,0.0,3.0,93,0.00,,,0.04,meteohub,2013-01-12 03:47:00,
2013-01-11 22:52:00,34.9,33.3,30.29,ENE,68,0.0,2.0,94,0.00,,,0.04,meteohub,2013-01-12 03:52:00,
2013-01-11 22:57:00,34.9,33.3,30.29,ENE,68,2.0,2.0,94,0.00,,,0.04,meteohub,2013-01-12 03:57:00,
2013-01-11 23:02:00,34.9,33.3,30.29,East,90,0.0,3.0,94,0.00,,,0.04,meteohub,2013-01-12 04:02:00,
2013-01-11 23:07:00,34.9,33.3,30.29,East,90,0.0,3.0,94,0.00,,,0.04,meteohub,2013-01-12 04:07:00,
2013-01-11 23:12:00,34.9,33.3,30.29,East,90,0.0,3.0,94,0.00,,,0.04,meteohub,2013-01-12 04:12:00,
2013-01-11 23:17:00,34.9,33.6,30.29,East,90,0.0,0.0,95,0.00,,,0.04,meteohub,2013-01-12 04:17:00,
2013-01-11 23:22:00,34.9,33.6,30.29,East,90,0.0,0.0,95,0.00,,,0.04,meteohub,2013-01-12 04:22:00,
2013-01-11 23:27:00,34.7,33.4,30.29,East,90,0.0,0.0,95,0.00,,,0.04,meteohub,2013-01-12 04:27:00,
2013-01-11 23:32:00,34.7,33.4,30.29,East,90,0.0,0.0,95,0.00,,,0.04,meteohub,2013-01-12 04:32:00,
2013-01-11 23:37:00,34.7,33.4,30.29,East,90,0.0,0.0,95,0.00,,,0.04,meteohub,2013-01-12 04:37:00,
2013-01-11 23:42:00,34.7,33.4,30.29,East,90,0.0,0.0,95,0.00,,,0.04,meteohub,2013-01-12 04:42:00,
2013-01-11 23:47:00,34.9,33.6,30.29,East,90,0.0,0.0,95,0.00,,,0.04,meteohub,2013-01-12 04:47:00,
2013-01-11 23:52:00,34.9,33.6,30.29,North,0,1.0,0.0,95,0.00,,,0.04,meteohub,2013-01-12 04:52:00,
2013-01-11 23:57:00,34.9,33.6,30.29,ENE,68,1.0,2.0,95,0.00,,,0.04,meteohub,2013-01-12 04:57:00,